Weather in Zanulye

Russia / Komi Republic     60°38′46″N   49°23′25″E
temp.,
°C
wind,
m/s
gust,
m/s
humid.,
%
clouds,
%
prec.,
mm/h
press.,
hPa
HPBL,
m
5 august, thu
thu500:00+15nw398071 0.0 1012285
03:00+11nw2991100 0.0 1013190
06:00+13nw387626 0.0 1014287
09:00+18nnw464679 0.0 10151256
12:00+20nw45375 0.0 10141949
15:00+21nw45355 0.0 10152196
18:00+18nw47474 0.0 1016838
21:00+13n411675 0.0 1017395
6 august, fri
fri600:00+9n23815 0.0 101847
03:00+8nne22815 0.0 101920
06:00+12nw13675 0.0 1019175
09:00+17nnw35495 0.0 10191185
12:00+20nnw354078 0.0 10192119
15:00+19n3440100 0.0 10182001
18:00+17nne255330 0.0 1019265
21:00+12ne31075100 0.0 1020311
7 august, sat
sat700:00+9ne258994 0.0 1021114
03:00+9nne2385100 0.0 102260
06:00+11nne24721 0.0 1022193
09:00+16nne34515 0.0 10211321
12:00+19n33417 0.0 10201693
15:00+20n3338100 0.0 10201852
18:00+18nne245410 0.0 1020139
21:00+12ne2270100 0.0 102126
8 august, sun
sun800:00+10ne2475100 0.0 102264
03:00+8ne268799 0.0 1023109
06:00+11ne247362 0.0 1023179
09:00+16ne235146 0.0 1022759
12:00+19nne223911 0.0 10221259
15:00+20nne223787 0.0 10221480
18:00+16nne2457100 0.0 102266
21:00+15ne2261100 0.0 102338
9 august, mon
mon900:00+13ene2565100 0.0 1022139
03:00+13e2678100 0.0 1022156
06:00+13ese2681100 0.0 1022252
09:00+13ese2677100 0.0 1022266
12:00+15ese3571100 0.0 1021384
15:00+14e2680100 0.2 1021249
18:00+12e2697100 1.1 1020206
21:00+12ese279883 1.2 1019221